| time (UTC) | temp F | wind direction | speed MPH | gust MPH | rain 1hr in | rain 24hr in | rain mn in | humidity % | barometer mb |
| 20260831070035 | 49 | 130 | 2.0 | 4.0 | 0.00 | 0.00 | 0.00 | 85 | 1019.0 |
| 20260831064644 | 49 | 119 | 2.0 | 3.0 | 0.00 | 0.00 | 0.00 | 83 | 1019.1 |
| 20260831063035 | 51 | 142 | 1.0 | 4.0 | 0.00 | 0.00 | 0.00 | 80 | 1019.1 |
| 20260831061534 | 52 | 163 | 2.0 | 4.0 | 0.00 | 0.00 | 0.00 | 79 | 1019.2 |
| 20260831060033 | 53 | 125 | 4.0 | 8.0 | 0.00 | 0.00 | 0.00 | 78 | 1019.2 |
| 20260831054535 | 54 | 141 | 3.0 | 6.0 | 0.00 | 0.00 | 0.00 | 75 | 1019.4 |
| 20260831053107 | 56 | 135 | 4.0 | 7.0 | 0.00 | 0.00 | 0.00 | 73 | 1019.5 |
| 20260831051532 | 56 | 174 | 3.0 | 6.0 | 0.00 | 0.00 | 0.00 | 73 | 1019.6 |
| 20260831050036 | 55 | 145 | 3.0 | 6.0 | 0.00 | 0.00 | 0.00 | 74 | 1019.6 |
| 20260831044534 | 57 | 155 | 2.0 | 4.0 | 0.00 | 0.00 | 0.00 | 70 | 1019.6 |
| 20260831043035 | 58 | 155 | 3.0 | 5.0 | 0.00 | 0.00 | 0.00 | 67 | 1019.5 |
| 20260831041651 | 59 | 126 | 4.0 | 6.0 | 0.00 | 0.00 | 0.00 | 67 | 1019.6 |
| 20260831040035 | 59 | 129 | 4.0 | 7.0 | 0.00 | 0.00 | 0.00 | 67 | 1019.4 |
| 20260831034534 | 59 | 116 | 3.0 | 6.0 | 0.00 | 0.00 | 0.00 | 65 | 1019.2 |
| 20260831033032 | 60 | 140 | 3.0 | 6.0 | 0.00 | 0.00 | 0.00 | 62 | 1019.1 |
| 20260831031531 | 62 | 158 | 2.0 | 6.0 | 0.00 | 0.00 | 0.00 | 60 | 1019.0 |
| 20260831030141 | 61 | 181 | 3.0 | 7.0 | 0.00 | 0.00 | 0.00 | 62 | 1019.0 |
| 20260831024536 | 62 | 241 | 1.0 | 5.0 | 0.00 | 0.00 | 0.00 | 61 | 1019.0 |
| 20260831023129 | 64 | 218 | 2.0 | 6.0 | 0.00 | 0.00 | 0.00 | 54 | 1019.0 |
| 20260831020035 | 68 | 248 | 2.0 | 6.0 | 0.00 | 0.00 | 0.00 | 47 | 1018.9 |
| 20260831013149 | 73 | 249 | 3.0 | 7.0 | 0.00 | 0.00 | 0.00 | 42 | 1018.9 |
| 20260831010105 | 74 | 230 | 4.0 | 9.0 | 0.00 | 0.00 | 0.00 | 40 | 1019.0 |
| 20260831004536 | 75 | 236 | 3.0 | 8.0 | 0.00 | 0.00 | 0.00 | 39 | 1018.9 |
| 20260831003110 | 76 | 228 | 3.0 | 7.0 | 0.00 | 0.00 | 0.00 | 38 | 1018.9 |
| 20260831001605 | 77 | 261 | 2.0 | 8.0 | 0.00 | 0.00 | 0.00 | 37 | 1018.9 |
| 20260831000032 | 77 | 234 | 3.0 | 8.0 | 0.00 | 0.00 | 0.00 | 36 | 1018.9 |
| 20260830233032 | 76 | 196 | 5.0 | 11.0 | 0.00 | 0.00 | 0.00 | 36 | 1019.0 |
| 20260830231537 | 76 | 196 | 5.0 | 11.0 | 0.00 | 0.00 | 0.00 | 37 | 1019.1 |
| 20260830230034 | 76 | 200 | 4.0 | 10.0 | 0.00 | 0.00 | 0.00 | 37 | 1019.2 |
| 20260830224532 | 75 | 195 | 4.0 | 11.0 | 0.00 | 0.00 | 0.00 | 38 | 1019.4 |
| 20260830223032 | 75 | 193 | 5.0 | 13.0 | 0.00 | 0.00 | 0.00 | 38 | 1019.7 |
| 20260830221643 | 76 | 201 | 5.0 | 13.0 | 0.00 | 0.00 | 0.00 | 38 | 1019.9 |
| 20260830220105 | 76 | 185 | 4.0 | 11.0 | 0.00 | 0.00 | 0.00 | 37 | 1020.1 |
| 20260830214532 | 76 | 196 | 4.0 | 11.0 | 0.00 | 0.00 | 0.00 | 38 | 1020.3 |
| 20260830213031 | 76 | 242 | 4.0 | 12.0 | 0.00 | 0.00 | 0.00 | 40 | 1020.4 |
| 20260830211605 | 75 | 286 | 2.0 | 7.0 | 0.00 | 0.00 | 0.00 | 42 | 1020.4 |
| 20260830210037 | 74 | 37 | 4.0 | 9.0 | 0.00 | 0.00 | 0.00 | 43 | 1020.6 |
| 20260830203030 | 73 | 303 | 3.0 | 13.0 | 0.00 | 0.00 | 0.00 | 43 | 1020.9 |
| 20260830201533 | 73 | 353 | 3.0 | 10.0 | 0.00 | 0.00 | 0.00 | 45 | 1021.0 |
| 20260830194531 | 71 | 348 | 5.0 | 11.0 | 0.00 | 0.00 | 0.00 | 49 | 1021.3 |
| 20260830193107 | 70 | 305 | 3.0 | 8.0 | 0.00 | 0.00 | 0.00 | 51 | 1021.5 |
| 20260830191534 | 68 | 352 | 4.0 | 10.0 | 0.00 | 0.00 | 0.00 | 54 | 1021.7 |
| 20260830190105 | 67 | 330 | 5.0 | 10.0 | 0.00 | 0.00 | 0.00 | 56 | 1021.8 |
| 20260830184535 | 66 | 337 | 5.0 | 10.0 | 0.00 | 0.00 | 0.00 | 56 | 1022.0 |
| 20260830183037 | 66 | 350 | 4.0 | 9.0 | 0.00 | 0.00 | 0.00 | 57 | 1022.1 |
| 20260830181535 | 66 | 325 | 5.0 | 11.0 | 0.00 | 0.00 | 0.00 | 56 | 1022.1 |
| 20260830180034 | 65 | 124 | 2.0 | 7.0 | 0.00 | 0.00 | 0.00 | 56 | 1022.3 |
| 20260830174530 | 64 | 141 | 3.0 | 6.0 | 0.00 | 0.00 | 0.00 | 58 | 1022.3 |
| 20260830173035 | 63 | 145 | 4.0 | 8.0 | 0.00 | 0.00 | 0.00 | 60 | 1022.3 |
| 20260830171535 | 62 | 143 | 5.0 | 9.0 | 0.00 | 0.00 | 0.00 | 62 | 1022.5 |
| 20260830170034 | 61 | 136 | 4.0 | 9.0 | 0.00 | 0.00 | 0.00 | 64 | 1022.6 |
| 20260830164605 | 60 | 146 | 5.0 | 9.0 | 0.00 | 0.00 | 0.00 | 66 | 1022.9 |
| 20260830163143 | 59 | 166 | 5.0 | 11.0 | 0.00 | 0.00 | 0.00 | 68 | 1023.1 |
| 20260830161535 | 58 | 165 | 4.0 | 11.0 | 0.00 | 0.00 | 0.00 | 71 | 1023.3 |
| 20260830160037 | 55 | 157 | 4.0 | 8.0 | 0.00 | 0.00 | 0.00 | 75 | 1023.5 |
| 20260830154536 | 53 | 133 | 4.0 | 8.0 | 0.00 | 0.00 | 0.00 | 77 | 1023.6 |
| 20260830153035 | 52 | 129 | 5.0 | 9.0 | 0.00 | 0.00 | 0.00 | 80 | 1023.6 |
| 20260830151537 | 50 | 126 | 5.0 | 8.0 | 0.00 | 0.00 | 0.00 | 83 | 1023.6 |
| 20260830150034 | 46 | 133 | 5.0 | 8.0 | 0.00 | 0.00 | 0.00 | 86 | 1023.6 |
| 20260830144534 | 46 | 134 | 6.0 | 10.0 | 0.00 | 0.00 | 0.00 | 87 | 1023.6 |
| 20260830143037 | 45 | 140 | 5.0 | 10.0 | 0.00 | 0.00 | 0.00 | 88 | 1023.5 |
| 20260830141535 | 44 | 142 | 4.0 | 7.0 | 0.00 | 0.00 | 0.00 | 88 | 1023.4 |
| 20260830140031 | 44 | 153 | 3.0 | 7.0 | 0.00 | 0.00 | 0.00 | 87 | 1023.3 |
| 20260830134534 | 45 | 151 | 4.0 | 7.0 | 0.00 | 0.00 | 0.00 | 87 | 1023.2 |
| 20260830133038 | 45 | 147 | 4.0 | 7.0 | 0.00 | 0.00 | 0.00 | 87 | 1023.1 |
| 20260830130029 | 45 | 140 | 5.0 | 10.0 | 0.00 | 0.00 | 0.00 | 86 | 1022.8 |
| 20260830124542 | 46 | 135 | 4.0 | 8.0 | 0.00 | 0.00 | 0.00 | 86 | 1022.9 |
| 20260830123038 | 46 | 140 | 5.0 | 9.0 | 0.00 | 0.00 | 0.00 | 86 | 1022.9 |
| 20260830121533 | 46 | 140 | 5.0 | 8.0 | 0.00 | 0.00 | 0.00 | 86 | 1022.9 |
| 20260830120105 | 46 | 143 | 5.0 | 9.0 | 0.00 | 0.00 | 0.00 | 86 | 1023.0 |
| 20260830114606 | 46 | 155 | 4.0 | 8.0 | 0.00 | 0.00 | 0.00 | 86 | 1022.9 |
| 20260830113046 | 46 | 146 | 5.0 | 8.0 | 0.00 | 0.00 | 0.00 | 86 | 1022.9 |
| 20260830111534 | 46 | 141 | 5.0 | 10.0 | 0.00 | 0.00 | 0.00 | 87 | 1022.9 |
| 20260830110037 | 46 | 140 | 5.0 | 8.0 | 0.00 | 0.00 | 0.00 | 87 | 1022.9 |
| 20260830103030 | 46 | 132 | 5.0 | 9.0 | 0.00 | 0.00 | 0.00 | 87 | 1022.9 |
| 20260830101536 | 46 | 134 | 4.0 | 8.0 | 0.00 | 0.00 | 0.00 | 86 | 1022.8 |
| 20260830100036 | 47 | 129 | 4.0 | 7.0 | 0.00 | 0.00 | 0.00 | 84 | 1022.9 |
| 20260830094534 | 49 | 123 | 5.0 | 8.0 | 0.00 | 0.00 | 0.00 | 82 | 1022.9 |
| 20260830091536 | 49 | 150 | 4.0 | 7.0 | 0.00 | 0.00 | 0.00 | 85 | 1023.0 |
| 20260830090036 | 48 | 134 | 4.0 | 7.0 | 0.00 | 0.00 | 0.00 | 86 | 1023.0 |
| 20260830084534 | 48 | 131 | 4.0 | 7.0 | 0.00 | 0.00 | 0.00 | 85 | 1023.1 |
| 20260830083031 | 48 | 137 | 2.0 | 5.0 | 0.00 | 0.00 | 0.00 | 82 | 1023.2 |
| 20260830081534 | 50 | 135 | 3.0 | 5.0 | 0.00 | 0.00 | 0.00 | 81 | 1023.1 |
| 20260830080036 | 50 | 133 | 4.0 | 7.0 | 0.00 | 0.00 | 0.00 | 79 | 1023.1 |
| 20260830074537 | 51 | 133 | 4.0 | 6.0 | 0.00 | 0.00 | 0.00 | 78 | 1023.1 |